Simultaneous Nadir Overpasses (SNOs) Predictions

Prediction of SNOs between AURA and NPP Satellite Orbit:

Table of predicted SNOs for the next 14.0 days since TLE Epoch: 6/5/2021
Index Date (AURA) Time (AURA) Lat,Lon (AURA) SZA (AURA ) Date (NPP) Time (NPP) Lat,Lon (NPP) SZA (NPP ) Distance(km) Time Diff (sec)
1 06/07/2021 11:24:49 -79.44, 85.16 109.97 06/07/2021 11:24:21 -79.45, 85.30 109.98 3.05 28
2 06/07/2021 12:14:10 79.63,-105.90 69.75 06/07/2021 12:15:00 79.63,-105.93 69.72 0.66 50
3 06/10/2021 02:53:38 74.45, 13.65 75.99 06/10/2021 02:52:25 74.70, 12.07 76.23 54.36 73
4 06/10/2021 03:41:14 -79.55,-158.25 110.32 06/10/2021 03:41:15 -79.55,-158.12 110.35 2.61 1
5 06/12/2021 19:08:20 79.33, 148.53 69.85 06/12/2021 19:07:33 79.33, 148.51 69.89 0.56 47
6 06/12/2021 19:57:40 -79.60, -41.94 110.56 06/12/2021 19:58:10 -79.61, -41.82 110.61 2.66 30
7 06/15/2021 11:24:44 79.42, -94.97 69.62 06/15/2021 11:24:26 79.42, -94.96 69.63 0.10 18
8 06/15/2021 12:14:06 -79.62, 74.07 110.69 06/15/2021 12:15:06 -79.61, 73.92 110.71 3.20 60
9 06/18/2021 02:51:51 -79.21,-148.08 110.14 06/18/2021 02:50:45 -79.21,-148.16 110.07 1.81 66



Historial Predications of SNOs between AURA and NPP
